Home   Weather   Kwajalein   Past weeks

Flag for Marshall Islands Past Weather in Kwajalein, Marshall Islands — Yesterday and Last 2 Weeks

Now
83 °F

Passing clouds.


Feels Like: 91 °F
Forecast: 81 / 88 °F
Wind: 9 mph from East

Location: Kwajalein / Bucholz

Current Time: Sep 27, 2016 at 2:02:27 AM

Latest Report: Sep 27, 2016 at 1:20 AM


Visibility: 10 mi

Pressure: 29.81 "Hg

Humidity: 81%

Dew Point: 77 °F

Location of KwajaleinLocation

Past Weather in Kwajalein — Graph

°F

Kwajalein Temperature Yesterday

Maximum temperature yesterday: 86 °F (at 3:20 PM)
Minimum temperature yesterday: 78 °F (at 2:20 AM)
Average temperature yesterday: 81 °F

High & Low Weather Summary for the Past Weeks

 TemperatureHumidityPressure
High91 °F (Sep 16, 1:20 PM)93% (Sep 19, 5:00 AM)29.93 "Hg (Sep 19, 5:00 AM)
Low78 °F (Sep 26, 2:20 AM)59% (Sep 16, 1:20 PM)29.71 "Hg (Sep 23, 3:40 PM)
Average84 °F75%29.82 "Hg
* Reported Sep 12 1:00 AM — Sep 27 1:00 AM, Kwajalein, Weather by CustomWeather, © 2016

Note: Actual official high and low records may vary slightly from our data, if they occured in-between our weather recording intervals... More about our weather records

Advertising

Kwajalein Weather History for the Previous 24 Hours

Scroll right to see more
 ConditionsComfort  
Time TempWeatherWind HumidityBarometerVisibility
1:00 AM
Tue, Sep 27
83 °FPassing clouds.9 mph81%29.82 "Hg10 mi
12:40 AM83 °FPassing clouds.9 mph80%29.83 "Hg10 mi
12:20 AM83 °FPassing clouds.9 mph81%29.83 "Hg10 mi
12:00 AM83 °FPassing clouds.9 mph81%29.84 "Hg10 mi
11:40 PM
Mon, Sep 26
83 °FPassing clouds.10 mph81%29.84 "Hg10 mi
11:20 PM83 °FClear.9 mph82%29.85 "Hg10 mi
11:00 PM83 °FClear.9 mph84%29.85 "Hg10 mi
10:40 PM82 °FClear.8 mph86%29.85 "Hg10 mi
10:20 PM82 °FPassing clouds.10 mph86%29.85 "Hg10 mi
10:00 PM82 °FPassing clouds.8 mph87%29.85 "Hg10 mi
9:40 PM82 °FClear.10 mph86%29.85 "Hg10 mi
9:20 PM82 °FClear.9 mph85%29.84 "Hg10 mi
9:00 PM82 °FPartly cloudy.No wind84%29.83 "Hg10 mi
8:20 PM83 °FPassing clouds.8 mph81%29.82 "Hg10 mi
8:00 PM83 °FClear.7 mph81%29.82 "Hg10 mi
7:20 PM83 °FPartly cloudy.8 mph81%29.80 "Hg10 mi
7:00 PM83 °FMostly cloudy.10 mph80%29.80 "Hg10 mi
6:20 PM84 °FBroken clouds.9 mph78%29.78 "Hg10 mi
6:00 PM85 °FHeavy rain. Broken clouds.8 mph76%29.77 "Hg7 mi
5:20 PM85 °FScattered clouds.7 mph75%29.76 "Hg10 mi
5:00 PM85 °FScattered clouds.9 mph74%29.75 "Hg10 mi
4:20 PM86 °FSunny.9 mph74%29.75 "Hg10 mi
4:00 PM86 °FSunny.10 mph74%29.75 "Hg10 mi
3:20 PM86 °FSunny.12 mph74%29.74 "Hg10 mi
3:00 PM86 °FScattered clouds.10 mph74%29.75 "Hg10 mi
2:20 PM86 °FSunny.12 mph74%29.76 "Hg10 mi
2:00 PM86 °FSunny.10 mph75%29.77 "Hg10 mi
1:20 PM85 °FWarm.8 mph75%29.78 "Hg10 mi
1:00 PM85 °FWarm.8 mph76%29.80 "Hg10 mi
12:20 PM84 °FWarm.9 mph79%29.82 "Hg10 mi
12:00 PM83 °FScattered clouds.8 mph81%29.83 "Hg10 mi
11:20 AM82 °FSunny.8 mph83%29.85 "Hg10 mi
11:00 AM81 °FSunny.8 mph85%29.86 "Hg10 mi
10:20 AM80 °FSunny.8 mph87%29.86 "Hg10 mi
10:00 AM80 °FSunny.9 mph88%29.85 "Hg10 mi
9:40 AM79 °FRain. Scattered clouds.14 mph89%29.85 "Hg10 mi
9:20 AM79 °FLight rain. More clouds than sun.13 mph91%29.86 "Hg10 mi
9:00 AM79 °FLight rain. Cloudy.15 mph91%29.85 "Hg10 mi
8:20 AM79 °FLight rain. Cloudy.14 mph92%29.84 "Hg10 mi
8:00 AM79 °FRain. Mostly cloudy.15 mph92%29.83 "Hg10 mi
7:40 AM79 °FLight rain. Cloudy.17 mph91%29.83 "Hg7 mi
7:20 AM79 °FLight rain. More clouds than sun.18 mph91%29.83 "Hg7 mi
6:40 AM79 °FRain. Cloudy.13 mph90%29.81 "Hg10 mi
6:20 AM79 °FRain. Mostly cloudy.14 mph89%29.80 "Hg10 mi
6:00 AM79 °FLight rain. Overcast.13 mph89%29.81 "Hg10 mi
5:40 AM79 °FLight rain. Overcast.15 mph88%29.80 "Hg10 mi
5:20 AM79 °FLight rain. Partly cloudy.14 mph89%29.79 "Hg10 mi
5:00 AM79 °FPassing clouds.16 mph89%29.79 "Hg10 mi
4:40 AM79 °FPassing clouds.16 mph89%29.80 "Hg10 mi
4:20 AM79 °FClear.14 mph90%29.78 "Hg10 mi
4:00 AM79 °FLight rain. Passing clouds.13 mph91%29.78 "Hg10 mi
3:40 AM78 °FLight rain. Clear.12 mph92%29.79 "Hg10 mi
3:20 AM78 °FClear.10 mph92%29.78 "Hg10 mi
3:00 AM78 °FClear.7 mph91%29.78 "Hg10 mi
2:40 AM78 °FClear.7 mph91%29.79 "Hg10 mi
2:20 AM78 °FRain. Passing clouds.7 mph91%29.80 "Hg10 mi
2:00 AM78 °FLight rain. Partly cloudy.8 mph90%29.81 "Hg7 mi
Weather by CustomWeather, © 2016

See weather overviewHow to use our weather pages